SVR0301 UWWW-URSS

Flight info

Callsign SVR0301
Flight time 2h 43m
Altitude 35000
Route GITEK T784 DENUD M161 URL W324 AKT N37 IPLED DCT GOTIK DCT MEMZA DCT VENFO DCT BINOL
Aircraft A320/M-SDE3FGHIRWY/LB1

Departure

Time 2025-10-03 12:08
Airport Kurumoch International Airport (UWWW)

Arrival

Time 2025-10-03 14:51
Airport Sochi International Airport (URSS)
Time Latitude Longitude Altitude Speed Heading
2025-10-03 11:47 53.51138 50.15818 447 ft 0 kts 332°
2025-10-03 11:59 53.51137 50.15820 447 ft 1 kts 332°
2025-10-03 12:00 53.51105 50.15850 447 ft 3 kts 329°
2025-10-03 12:00 53.51070 50.15875 447 ft 3 kts 25°
2025-10-03 12:01 53.51064 50.15870 447 ft 0 kts 62°
2025-10-03 12:03 53.51094 50.15960 447 ft 10 kts 61°
2025-10-03 12:04 53.51198 50.16279 447 ft 21 kts 61°
2025-10-03 12:04 53.51330 50.16685 447 ft 14 kts 57°
2025-10-03 12:05 53.51570 50.16593 447 ft 22 kts 340°
2025-10-03 12:05 53.51815 50.16697 448 ft 22 kts 72°
2025-10-03 12:06 53.51633 50.16978 450 ft 27 kts 160°
2025-10-03 12:06 53.50477 50.17669 439 ft 150 kts 160°
2025-10-03 12:07 53.48186 50.19032 1442 ft 175 kts 159°
2025-10-03 12:07 53.45872 50.20476 2620 ft 191 kts 158°
2025-10-03 12:08 53.41601 50.19428 3591 ft 257 kts 217°
2025-10-03 12:09 53.38243 50.17129 5117 ft 271 kts 189°
2025-10-03 12:09 53.36368 50.16632 5909 ft 277 kts 188°
2025-10-03 12:09 53.32485 50.15730 7466 ft 286 kts 188°
2025-10-03 12:10 53.28541 50.14826 9052 ft 289 kts 189°
2025-10-03 12:10 53.24533 50.13898 10641 ft 293 kts 189°
2025-10-03 12:11 53.20227 50.12882 11120 ft 335 kts 189°
2025-10-03 12:11 53.15308 50.11722 11527 ft 373 kts 189°
2025-10-03 12:12 53.07453 50.09886 13350 ft 384 kts 189°
2025-10-03 12:13 53.02104 50.08643 14580 ft 391 kts 189°
2025-10-03 12:13 52.99431 50.08021 15106 ft 394 kts 189°
2025-10-03 12:13 52.93951 50.06742 16186 ft 401 kts 189°
2025-10-03 12:14 52.88373 50.05453 17253 ft 408 kts 189°
2025-10-03 12:14 52.82703 50.04142 18274 ft 415 kts 189°
2025-10-03 12:15 52.76940 50.02807 19200 ft 422 kts 189°
2025-10-03 12:15 52.71083 50.01464 20019 ft 428 kts 189°
2025-10-03 12:16 52.65134 50.00104 20796 ft 434 kts 189°
2025-10-03 12:17 52.56069 50.01387 21896 ft 447 kts 159°
2025-10-03 12:17 52.50767 50.06737 22593 ft 452 kts 138°
2025-10-03 12:17 52.48408 50.10187 22942 ft 455 kts 138°
2025-10-03 12:18 52.46032 50.13650 23268 ft 457 kts 138°
2025-10-03 12:18 52.38821 50.24085 24220 ft 465 kts 138°
2025-10-03 12:19 52.33946 50.31106 24761 ft 468 kts 139°
2025-10-03 12:20 52.19116 50.52349 26242 ft 478 kts 139°
2025-10-03 12:22 52.01441 50.77419 27922 ft 482 kts 139°
2025-10-03 12:24 51.74309 50.95684 30543 ft 472 kts 167°
2025-10-03 12:26 51.54018 51.12818 32173 ft 475 kts 148°
2025-10-03 12:28 51.29248 51.39139 34223 ft 474 kts 148°
2025-10-03 12:30 51.05681 51.54991 35520 ft 465 kts 181°
2025-10-03 12:33 50.76512 51.56908 35513 ft 467 kts 181°
2025-10-03 12:34 50.53738 51.58389 35498 ft 468 kts 181°
2025-10-03 12:37 50.25569 51.60293 35489 ft 469 kts 180°
2025-10-03 12:38 50.02738 51.61834 35489 ft 469 kts 181°
2025-10-03 12:41 49.73376 51.63826 35476 ft 469 kts 181°
2025-10-03 12:42 49.50549 51.65358 35460 ft 470 kts 181°
2025-10-03 12:44 49.24374 51.67078 35452 ft 471 kts 181°
2025-10-03 12:46 48.98212 51.68789 35439 ft 472 kts 181°
2025-10-03 12:49 48.68677 51.70677 35427 ft 473 kts 181°
2025-10-03 12:50 48.45611 51.72147 35423 ft 474 kts 181°
2025-10-03 12:52 48.19171 51.73806 35414 ft 476 kts 181°
2025-10-03 12:54 47.92606 51.75461 35410 ft 479 kts 181°
2025-10-03 12:56 47.69259 51.76880 35408 ft 480 kts 181°
2025-10-03 12:58 47.39170 51.78676 35396 ft 483 kts 181°
2025-10-03 13:00 47.15626 51.80039 35388 ft 483 kts 185°
2025-10-03 13:02 46.86007 51.73810 35396 ft 479 kts 193°
2025-10-03 13:04 46.62887 51.68683 35393 ft 481 kts 193°
2025-10-03 13:06 46.33125 51.62166 35390 ft 481 kts 193°
2025-10-03 13:08 46.06652 51.56369 35385 ft 482 kts 193°
2025-10-03 13:10 45.80149 51.50608 35380 ft 481 kts 193°
2025-10-03 13:12 45.53638 51.44938 35372 ft 481 kts 193°
2025-10-03 13:14 45.27197 51.39315 35355 ft 480 kts 193°
2025-10-03 13:16 45.00792 51.33760 35353 ft 478 kts 193°
2025-10-03 13:18 44.74564 51.28161 35345 ft 475 kts 195°
2025-10-03 13:20 44.49701 51.21799 35347 ft 472 kts 195°
2025-10-03 13:22 44.23901 51.15441 35334 ft 469 kts 195°
2025-10-03 13:24 43.98238 51.09124 35330 ft 467 kts 195°
2025-10-03 13:26 43.81602 50.87386 35312 ft 424 kts 251°
2025-10-03 13:28 43.72578 50.57213 35290 ft 425 kts 251°
2025-10-03 13:30 43.63476 50.27119 35286 ft 425 kts 250°
2025-10-03 13:32 43.54283 49.97080 35284 ft 424 kts 250°
2025-10-03 13:34 43.45044 49.67194 35278 ft 424 kts 250°
2025-10-03 13:36 43.40247 49.36402 35272 ft 416 kts 274°
2025-10-03 13:38 43.41483 49.04597 35265 ft 416 kts 273°
2025-10-03 13:40 43.42650 48.72752 35257 ft 417 kts 273°
2025-10-03 13:42 43.43726 48.40887 35253 ft 417 kts 273°
2025-10-03 13:44 43.44721 48.09018 35239 ft 417 kts 272°
2025-10-03 13:46 43.45621 47.77086 35232 ft 417 kts 272°
2025-10-03 13:48 43.46446 47.45141 35211 ft 417 kts 272°
2025-10-03 13:50 43.47162 47.13227 35199 ft 418 kts 271°
2025-10-03 13:52 43.47808 46.81242 35187 ft 418 kts 271°
2025-10-03 13:55 43.48409 46.45269 35170 ft 418 kts 271°
2025-10-03 13:56 43.48806 46.17277 35161 ft 418 kts 271°
2025-10-03 13:58 43.50205 45.89321 35165 ft 418 kts 276°
2025-10-03 14:00 43.53123 45.53487 35165 ft 419 kts 275°
2025-10-03 14:02 43.55310 45.25602 35175 ft 419 kts 275°
2025-10-03 14:04 43.57927 44.90976 35179 ft 419 kts 275°
2025-10-03 14:06 43.59970 44.62990 35176 ft 420 kts 275°
2025-10-03 14:08 43.62497 44.26896 35176 ft 420 kts 275°
2025-10-03 14:10 43.63909 43.98752 35174 ft 421 kts 271°
2025-10-03 14:12 43.64855 43.62439 35161 ft 421 kts 271°
2025-10-03 14:14 43.65550 43.34129 35170 ft 421 kts 271°
2025-10-03 14:16 43.66341 42.97730 35144 ft 422 kts 270°
2025-10-03 14:18 43.66887 42.69314 35111 ft 422 kts 270°
2025-10-03 14:20 43.67473 42.32839 35071 ft 423 kts 270°
2025-10-03 14:22 43.67854 42.04381 35059 ft 424 kts 269°
2025-10-03 14:24 43.68232 41.67723 35062 ft 425 kts 269°
2025-10-03 14:26 43.68459 41.39136 35070 ft 425 kts 269°
2025-10-03 14:28 43.68633 41.02336 35051 ft 427 kts 268°
2025-10-03 14:30 43.68739 40.73300 33326 ft 437 kts 268°
2025-10-03 14:32 43.68830 40.34433 25486 ft 467 kts 268°
2025-10-03 14:33 43.68836 40.25484 23119 ft 456 kts 268°
2025-10-03 14:33 43.68077 40.16948 20946 ft 446 kts 249°
2025-10-03 14:34 43.66758 40.13101 20066 ft 441 kts 237°
2025-10-03 14:34 43.62523 40.07146 18991 ft 436 kts 213°
2025-10-03 14:35 43.57115 40.03474 17936 ft 431 kts 205°
2025-10-03 14:35 43.51683 40.00084 17025 ft 426 kts 204°
2025-10-03 14:36 43.43591 39.95339 15439 ft 418 kts 199°
2025-10-03 14:36 43.38115 39.92828 13330 ft 403 kts 198°
2025-10-03 14:37 43.32988 39.90504 11314 ft 377 kts 197°
2025-10-03 14:37 43.28209 39.88343 10892 ft 346 kts 197°
2025-10-03 14:38 43.25973 39.87332 10746 ft 331 kts 197°
2025-10-03 14:38 43.21777 39.85438 10449 ft 305 kts 197°
2025-10-03 14:39 43.16066 39.82855 10078 ft 272 kts 197°
2025-10-03 14:39 43.12546 39.81259 9428 ft 268 kts 197°
2025-10-03 14:40 43.10770 39.80456 8976 ft 270 kts 197°
2025-10-03 14:40 43.05396 39.78023 7656 ft 272 kts 198°
2025-10-03 14:41 43.03718 39.76919 7455 ft 265 kts 216°
2025-10-03 14:41 43.02039 39.70482 6881 ft 246 kts 284°
2025-10-03 14:42 43.04016 39.66862 6497 ft 243 kts 329°
2025-10-03 14:42 43.07268 39.66100 6109 ft 242 kts 14°
2025-10-03 14:43 43.10234 39.68174 5727 ft 240 kts 32°
2025-10-03 14:43 43.13085 39.70543 5354 ft 239 kts 32°
2025-10-03 14:44 43.15913 39.72890 4981 ft 237 kts 33°
2025-10-03 14:44 43.18729 39.75233 4609 ft 236 kts 33°
2025-10-03 14:45 43.20132 39.76402 4426 ft 236 kts 33°
2025-10-03 14:45 43.23748 39.79735 3996 ft 236 kts 32°
2025-10-03 14:46 43.26622 39.81871 3505 ft 234 kts 32°
2025-10-03 14:46 43.29452 39.83983 2945 ft 231 kts 33°
2025-10-03 14:47 43.32258 39.86081 2387 ft 228 kts 33°
2025-10-03 14:47 43.35019 39.88147 1829 ft 224 kts 31°
2025-10-03 14:48 43.37624 39.90097 1326 ft 200 kts 29°
2025-10-03 14:48 43.39871 39.91784 853 ft 168 kts 27°
2025-10-03 14:49 43.43545 39.94543 82 ft 144 kts 27°
2025-10-03 14:50 43.44764 39.95462 88 ft 51 kts 29°
2025-10-03 14:50 43.45064 39.95504 91 ft 12 kts 318°
2025-10-03 14:51 43.45069 39.95287 90 ft 15 kts 244°
2025-10-03 14:51 43.45018 39.95140 85 ft 14 kts 244°
2025-10-03 14:52 43.44868 39.94759 70 ft 20 kts 245°
2025-10-03 14:52 43.44808 39.94585 71 ft 19 kts 245°
2025-10-03 14:53 43.44713 39.94305 73 ft 14 kts 245°
2025-10-03 14:54 43.44740 39.94188 75 ft 1 kts 334°
2025-10-03 14:54 43.44747 39.94184 67 ft 0 kts 334°